Location: Brahman Valley
(40.6513°N, 111.8855°W)
Time: 12:23:29
(UTC+00:00)

Vanguard 2 - Pass Details

Date: 17 May 2021
Orbit: 552 x 2937 km, 32.9° (Epoch: 14 June)

Event Time Altitude Azimuth Distance (km) Brightness Sun altitude
Rises 19:36:32 0° 271° (W) 6,323 12.2 68.7°
Reaches altitude 10° 19:43:40 10° 251° (WSW) 5,612 12.2 68.5°
Maximum altitude 19:51:13 14° 224° (SW) 5,370 12.4 68.1°
Drops below altitude 10° 19:58:58 10° 198° (SSW) 5,707 12.5 67.6°
Sets 20:06:33 0° 177° (S) 6,489 12.5 67.0°
